Theta_e
327 324 319 322 320 320 320 322 327 324 323 325 326 329 328 321 318 319 319 316 314 316 320 320 318 318 316 315 316 313 312 312 314 315 314 314 313 313 314 314 314 315 314 310 310 312 313 314 315 316 319 320 321 322 323 326 327 329 330 330 330 330 329 329 330 331 332 332 331 331 332 332 332 332 332 332 332 334 334 334 334 333 333 333 332 331
327 323 319 325 325 322 320 320 320 317 319 324 324 324 322 319 318 316 316 318 315 315 321 321 318 318 316 316 316 314 313 314 314 314 313 313 312 313 313 314 314 314 313 312 312 311 312 314 314 316 319 320 321 322 323 325 326 328 329 329 330 329 329 328 328 329 330 331 331 330 330 331 331 332 332 332 332 332 332 332 332 332 333 333 333 330
324 324 324 327 324 319 316 316 318 320 326 329 324 320 319 320 320 317 317 320 317 316 323 325 321 318 317 316 316 314 315 314 314 314 314 314 313 313 313 313 314 314 315 315 315 312 311 313 314 314 318 319 321 322 323 324 326 327 328 329 329 329 329 328 328 327 328 329 330 329 329 329 329 330 331 331 331 331 331 331 331 330 331 332 332 332
321 324 325 325 320 316 316 317 319 322 326 330 326 321 321 322 321 318 319 320 318 316 320 324 322 318 317 320 320 317 315 314 313 313 313 313 314 314 314 314 315 315 316 316 317 314 310 312 313 314 317 319 320 321 322 324 325 327 327 328 328 328 328 328 327 327 327 328 328 328 327 327 327 327 328 328 329 329 330 330 331 330 330 330 331 332
323 321 318 320 319 320 319 317 319 320 317 324 334 334 326 321 319 319 321 321 318 318 319 319 320 323 328 331 332 328 322 320 318 318 318 316 314 314 315 316 317 317 316 316 318 319 313 311 312 313 315 318 319 320 321 323 324 325 327 327 328 328 327 327 327 327 327 327 327 326 326 325 325 325 325 326 326 327 329 330 330 331 331 331 331 331
324 318 316 319 319 321 322 319 322 324 318 319 330 334 329 326 324 324 326 324 320 319 319 316 317 330 338 331 328 328 325 324 324 324 324 320 315 315 316 316 317 317 317 317 318 319 315 311 312 313 315 316 319 320 320 321 322 323 325 326 326 327 327 327 326 326 326 325 325 325 324 323 323 322 323 323 324 325 327 328 329 330 331 331 331 331
320 318 320 323 322 321 322 322 322 324 322 317 320 326 331 335 331 328 324 319 320 319 317 316 316 324 327 319 319 320 316 318 318 318 319 317 316 319 321 318 318 317 316 319 321 322 318 313 312 313 314 316 318 319 320 320 321 322 323 324 325 325 326 326 325 325 325 324 324 323 323 323 322 321 321 322 322 323 324 326 328 329 330 330 330 329
318 320 322 324 326 323 321 321 320 323 325 318 319 325 330 331 329 333 328 319 323 322 320 324 323 321 322 319 318 317 315 318 318 318 320 316 314 318 324 324 322 320 319 321 327 331 323 313 312 314 315 316 317 318 319 320 321 321 322 322 323 324 324 325 325 324 324 323 323 323 322 322 322 321 321 321 321 321 321 323 324 326 328 329 329 328
318 323 324 324 326 324 324 326 321 324 327 320 320 325 329 329 332 339 337 329 326 319 320 328 321 319 328 331 327 319 317 323 325 325 324 318 315 316 322 324 322 321 320 322 330 334 322 312 313 315 316 316 317 317 318 319 320 320 321 322 322 322 323 323 323 323 323 322 322 321 321 320 320 320 320 319 319 319 319 319 321 322 323 325 326 326
317 319 322 324 324 325 326 324 322 326 327 321 320 325 328 330 333 336 334 328 324 317 319 328 320 315 324 332 329 319 318 325 325 322 319 316 317 319 321 322 327 332 328 326 330 324 313 312 315 315 316 316 316 317 318 318 319 320 320 321 321 321 321 321 321 321 321 321 320 320 319 319 319 318 318 317 316 317 317 317 317 317 318 320 322 323
317 315 316 319 321 325 324 320 321 324 320 320 327 330 329 332 334 337 335 326 318 318 324 328 321 314 319 329 328 318 320 325 321 320 323 325 327 330 333 333 338 343 335 330 332 320 308 310 314 313 315 315 315 316 316 317 317 318 319 319 319 319 319 320 319 319 319 319 319 318 318 318 317 317 316 316 315 315 315 314 314 314 314 315 316 317
319 316 316 317 317 321 324 321 320 322 322 324 333 333 324 328 331 333 335 326 317 321 327 328 322 314 316 326 326 321 322 322 319 321 326 331 334 336 343 344 340 338 331 328 335 329 317 315 313 312 314 314 315 316 315 316 316 316 317 317 318 318 318 319 318 318 318 318 318 318 317 317 317 316 315 315 314 314 313 313 313 312 312 312 312 312
320 320 318 315 315 319 327 327 321 325 329 325 326 326 319 322 324 323 328 326 322 320 319 323 323 316 318 323 321 323 323 322 322 322 322 327 330 332 340 344 340 337 334 332 332 334 335 326 312 310 313 313 314 315 315 316 315 315 316 316 316 317 317 317 317 317 317 317 317 317 316 316 316 315 315 314 314 313 313 312 312 311 311 310 310 311
322 325 319 316 317 318 322 326 321 323 327 320 319 321 321 322 321 321 324 321 321 321 317 318 320 319 322 321 319 320 318 320 323 322 322 325 330 338 342 341 339 336 335 333 330 336 341 324 309 309 313 313 313 315 314 315 315 315 315 315 315 316 316 316 316 316 316 316 316 316 316 316 315 315 314 314 313 313 313 312 312 311 310 310 309 310
319 323 322 319 321 320 318 322 324 325 323 320 320 318 320 326 325 325 326 320 320 323 319 316 319 325 326 317 316 320 321 322 324 323 322 324 330 335 333 334 338 336 332 329 331 338 331 313 307 311 312 312 314 314 314 314 314 314 314 315 315 315 315 315 315 315 315 315 315 315 315 315 315 314 314 313 313 312 312 312 311 310 309 309 309 309
316 320 323 318 318 320 320 320 322 324 321 320 320 316 317 324 323 320 321 321 322 322 320 319 323 330 325 315 316 322 325 325 324 325 324 324 329 328 327 333 340 337 332 330 333 339 325 308 307 311 310 312 313 313 314 314 314 314 314 314 314 314 315 314 314 315 314 315 315 314 315 314 314 314 313 313 313 312 312 312 311 310 310 309 308 309
317 320 320 316 316 319 320 319 320 322 320 319 319 318 318 320 320 318 316 316 317 317 319 319 321 323 318 315 318 319 322 324 323 323 322 323 326 325 327 331 335 337 336 333 334 338 325 308 307 310 311 312 313 312 314 314 313 314 313 314 314 314 314 314 314 314 314 314 314 314 314 314 313 313 313 313 312 312 312 311 311 310 309 309 309 309
321 323 318 316 318 317 315 318 321 321 319 320 322 321 317 316 321 324 321 321 319 317 320 319 317 318 315 317 320 316 316 319 321 321 319 321 322 323 327 325 327 336 340 333 331 329 318 307 307 310 311 312 313 313 314 314 314 314 313 314 314 314 314 314 314 314 314 314 313 314 313 313 313 313 312 313 312 312 311 311 311 310 309 309 309 309
319 319 317 316 319 318 316 318 321 319 315 320 324 321 320 322 324 322 319 322 321 319 324 323 316 314 314 316 318 315 316 319 319 319 320 322 321 323 328 324 320 328 335 332 332 333 322 309 307 309 312 313 313 313 313 313 313 313 313 314 313 314 314 314 314 314 314 313 313 313 313 312 313 312 312 312 311 311 311 310 310 310 309 309 309 310
316 314 316 316 316 317 318 318 321 321 317 318 318 316 320 325 325 323 319 319 320 319 323 321 315 316 319 318 315 314 318 320 319 320 321 322 321 320 323 325 324 328 334 335 338 344 332 311 306 310 312 313 314 313 313 312 312 313 313 313 313 314 313 313 314 313 313 313 313 313 312 312 312 312 312 311 311 310 310 310 310 310 310 309 309 310
315 311 315 316 314 317 320 319 319 320 319 320 319 318 321 320 320 323 320 318 321 323 323 318 314 321 328 321 315 315 317 317 318 318 318 318 317 316 318 326 331 333 340 338 333 338 327 308 306 312 312 313 314 313 313 312 312 312 312 312 313 313 313 313 313 313 313 313 312 312 312 312 311 311 311 311 310 310 309 310 310 310 310 309 309 311
314 312 319 321 317 319 323 319 317 319 319 318 318 318 320 319 319 320 318 317 319 320 323 319 313 319 326 319 316 318 318 316 317 315 315 316 316 318 321 325 328 333 342 336 331 342 332 309 307 311 311 313 314 313 314 313 312 312 312 312 312 312 313 313 313 313 313 312 312 312 312 312 311 311 310 310 310 310 309 309 309 309 309 309 310 311
317 319 324 325 321 322 321 317 316 319 318 317 319 319 317 318 318 317 318 320 319 317 320 321 316 316 318 316 317 320 319 319 317 313 316 321 322 324 327 326 327 333 337 333 337 344 323 305 307 311 312 313 313 314 314 313 312 312 312 312 312 312 312 313 313 313 313 312 312 312 311 311 311 310 310 310 309 309 309 309 309 308 308 309 309 310
317 319 319 320 323 325 323 319 317 318 318 317 319 320 318 319 320 320 321 322 322 320 319 319 318 316 316 319 323 324 322 321 320 316 318 325 327 328 332 333 334 337 337 338 344 334 311 305 311 313 312 314 313 313 314 313 313 312 312 312 312 312 312 312 312 312 312 312 311 311 311 311 310 310 309 309 309 309 308 308 308 308 308 308 309 309
314 318 318 318 321 321 323 323 319 318 318 318 321 321 319 320 322 321 320 318 319 323 322 318 317 316 321 326 324 324 325 323 321 321 320 320 324 327 331 334 336 336 336 336 339 336 327 322 316 310 310 312 312 313 313 312 312 312 312 313 312 312 313 312 312 312 311 311 311 311 311 310 310 309 308 309 308 308 308 308 307 307 307 308 308 308
317 320 317 316 317 316 317 319 320 321 320 320 324 324 319 320 321 319 318 317 318 322 321 318 315 314 320 325 321 322 327 320 317 323 323 320 324 328 329 331 331 327 327 329 332 337 336 330 316 306 307 309 309 311 311 311 311 311 311 312 312 312 312 311 311 311 311 311 311 311 310 310 310 309 309 309 308 308 308 307 307 307 307 307 307 308
325 323 314 313 315 314 314 315 320 325 323 320 323 321 318 319 319 318 319 319 318 318 317 316 315 314 316 320 321 323 330 328 325 332 332 324 324 327 326 327 326 322 322 327 332 336 334 331 322 309 306 309 309 309 309 309 310 310 310 311 311 311 311 311 311 310 310 310 310 310 311 310 310 310 309 308 308 308 307 307 307 307 306 306 306 307
325 322 315 314 314 314 314 316 320 322 321 320 320 319 318 318 318 318 319 318 317 317 317 315 316 316 314 316 321 323 328 331 331 334 335 324 321 324 324 324 324 321 322 324 328 330 328 328 327 313 305 309 310 309 309 309 309 310 310 310 311 311 310 310 309 309 310 310 309 310 310 310 310 310 309 308 307 307 307 307 307 306 306 306 306 306
322 320 318 317 315 314 315 318 321 320 318 319 318 318 318 317 317 318 318 317 317 317 317 315 316 317 314 313 317 318 319 322 323 324 324 320 320 324 324 325 325 323 323 323 324 324 322 325 329 318 307 308 310 310 311 310 310 310 309 310 311 311 311 310 308 309 309 309 309 310 310 310 310 309 308 307 307 306 306 306 306 306 305 305 305 305
319 319 321 318 316 316 315 318 321 319 317 318 318 317 317 316 317 317 316 316 317 316 316 316 316 316 313 313 315 315 315 316 316 318 319 320 323 325 325 325 323 321 322 323 322 323 322 324 324 313 305 307 309 309 310 310 310 311 310 311 312 311 311 310 308 309 308 308 309 310 310 310 309 308 307 307 306 306 306 305 305 305 305 305 305 305
316 319 322 319 317 318 316 317 319 319 318 319 318 318 317 316 316 316 316 316 316 316 315 315 316 315 313 315 316 316 316 315 315 318 321 323 324 324 323 323 322 322 324 323 322 322 323 324 321 311 305 306 308 308 309 310 311 311 311 312 312 312 311 309 308 308 308 308 309 309 309 309 308 307 307 306 306 305 305 305 304 304 304 304 304 304
318 319 321 320 318 318 317 318 319 318 317 318 319 319 318 316 315 315 316 316 315 316 316 316 316 314 314 317 316 316 319 320 320 322 323 322 321 321 322 321 321 321 323 322 322 322 323 323 320 313 306 306 308 308 309 310 310 311 311 312 312 311 310 308 308 307 307 308 308 308 308 308 307 306 306 306 306 305 305 304 303 303 303 303 303 303
318 320 323 321 319 318 318 319 319 318 318 318 318 318 317 316 316 315 316 316 315 315 316 316 315 313 315 320 318 317 320 322 323 323 322 321 321 321 321 319 318 320 321 322 320 320 320 315 310 308 306 307 309 309 309 309 308 309 310 310 310 310 309 309 308 307 307 308 308 307 307 307 306 305 306 306 305 305 304 303 303 303 302 302 302 301
316 320 323 321 320 320 318 318 318 319 320 319 317 318 317 316 316 316 315 315 315 315 315 315 315 314 316 319 319 317 319 320 321 319 317 318 320 321 321 320 319 319 318 316 315 317 315 307 304 307 308 308 309 308 308 308 308 308 308 308 309 309 309 308 308 307 308 308 307 307 306 305 305 305 305 305 305 303 303 302 302 302 302 301 301 300
315 317 319 318 319 321 318 317 320 321 320 319 321 322 319 315 316 317 316 315 315 315 315 315 317 316 315 316 317 317 317 317 318 316 315 318 321 321 321 319 317 317 316 316 317 318 312 305 304 307 307 307 308 307 308 308 307 307 308 308 308 308 308 308 308 308 308 307 307 307 306 305 305 305 305 304 304 302 302 302 302 301 301 300 300 299
313 314 316 316 317 319 318 319 321 321 319 320 322 321 317 316 316 316 317 317 316 316 316 315 315 315 315 315 315 317 317 316 316 315 315 320 321 318 317 317 315 317 317 315 315 313 307 304 305 306 306 307 307 307 307 307 306 306 307 307 307 307 307 307 307 307 307 307 307 307 306 305 305 304 304 304 302 302 302 301 301 301 300 299 299 298
313 313 314 316 317 318 319 320 320 320 320 320 321 320 317 317 318 317 317 317 315 315 315 315 315 315 315 315 316 317 317 315 316 316 314 315 315 313 315 314 312 311 311 307 307 306 304 304 305 304 305 306 307 307 306 305 305 305 305 306 306 305 305 305 305 306 306 306 307 307 306 305 304 304 304 303 302 302 301 301 301 300 300 299 298 297
313 313 314 316 316 317 318 319 319 319 320 318 318 319 319 319 319 318 317 317 317 316 314 314 315 315 315 315 316 316 315 314 317 316 313 311 311 311 313 310 304 303 304 303 303 304 304 304 304 304 304 305 306 307 305 304 304 303 304 305 305 304 304 304 305 306 305 305 305 305 305 304 304 303 303 303 302 302 302 301 300 300 299 299 298 297
314 314 314 314 316 317 317 318 317 317 319 318 319 321 321 320 319 318 318 318 318 317 315 314 314 314 315 315 315 315 315 316 318 316 312 310 309 309 310 308 303 301 303 303 303 303 304 304 304 304 304 304 306 306 305 303 303 302 303 305 303 302 303 304 305 304 304 304 303 303 303 303 303 303 303 302 303 302 302 301 300 300 299 298 298 297
314 314 314 314 315 316 316 317 317 316 317 319 319 321 321 317 315 318 320 319 317 313 312 314 315 316 317 318 317 317 318 319 317 313 309 308 306 303 304 305 303 301 302 303 302 302 302 302 302 303 303 303 304 304 303 302 301 301 302 302 301 302 304 305 304 303 302 302 302 302 302 301 301 301 302 302 302 302 301 301 300 299 298 297 297 296
315 315 315 315 315 315 316 317 316 316 319 321 321 321 318 314 316 319 319 317 314 310 308 310 313 313 314 316 316 316 317 314 310 308 307 306 305 302 300 300 300 300 300 301 301 301 301 301 301 301 302 303 303 303 302 301 300 300 300 299 299 302 304 304 302 301 301 301 301 301 301 301 300 300 300 301 301 301 301 300 299 298 297 297 296 295
316 316 315 315 315 315 316 316 316 317 320 320 319 317 315 315 318 318 313 311 310 308 307 308 309 308 309 311 310 309 310 308 306 306 305 304 304 304 300 297 298 298 299 300 300 300 300 299 300 301 302 302 303 302 301 300 298 299 298 297 299 302 303 301 300 300 300 299 299 300 300 299 299 299 299 299 299 299 300 299 298 297 297 296 295 294
316 317 316 316 316 315 315 316 317 318 316 314 314 314 314 315 315 312 308 307 307 307 307 307 307 305 305 306 305 304 305 304 303 303 302 301 302 301 299 297 297 297 297 298 299 300 299 299 299 300 301 301 301 301 300 298 297 298 297 297 301 303 301 299 299 299 298 298 298 298 298 298 298 298 298 298 298 298 298 298 297 296 296 295 294 293
316 317 316 316 316 316 317 317 315 313 311 310 313 314 311 309 309 308 307 306 306 306 306 306 305 305 304 305 305 304 303 303 302 301 300 300 300 299 298 296 296 296 297 298 298 299 299 298 298 298 299 300 300 300 299 297 296 296 296 298 301 301 299 299 298 297 297 297 297 297 297 297 297 297 297 297 297 297 297 297 296 295 294 294 293 292
314 313 314 316 315 313 313 314 310 307 306 307 308 309 306 304 305 306 306 305 304 303 304 303 303 303 303 303 303 303 302 301 301 300 299 299 299 298 297 296 295 296 297 297 297 298 298 298 297 297 297 298 298 299 299 297 296 295 296 299 300 299 298 298 296 296 296 296 296 296 296 296 296 296 296 296 296 296 296 295 295 293 293 292 291 291
310 308 310 314 313 309 308 309 307 305 305 305 305 305 304 303 303 303 303 302 300 299 299 300 300 301 301 300 300 301 300 299 299 299 298 297 297 296 296 295 295 295 296 296 296 297 297 296 296 296 296 296 297 297 297 297 296 295 297 298 298 297 297 296 294 294 295 295 295 295 295 295 295 295 295 295 295 295 295 294 294 293 292 291 290 290
310 308 310 313 312 310 308 307 305 305 305 305 306 305 303 301 299 298 298 297 296 295 296 296 297 298 298 298 298 298 298 298 298 297 296 296 295 295 295 294 294 294 294 295 295 295 295 295 294 294 294 295 295 296 296 296 296 295 296 297 297 296 296 294 293 293 293 293 294 294 294 294 294 294 294 294 294 294 293 293 293 292 291 290 289 289
308 308 310 312 312 311 308 305 304 303 303 302 303 302 301 299 296 294 293 292 292 291 292 293 294 295 295 295 295 296 296 296 296 295 295 294 294 294 293 293 292 293 293 294 294 294 294 293 293 293 293 293 294 294 294 294 295 295 295 295 295 295 294 293 293 292 292 293 293 293 293 293 293 293 293 293 293 293 292 292 292 291 291 291 290 290
305 307 308 309 309 309 306 304 303 303 302 300 298 296 295 295 293 291 290 289 288 287 288 289 290 292 292 292 292 293 293 293 293 293 292 292 292 292 292 291 291 291 292 292 292 292 292 292 292 292 292 292 292 293 293 293 293 293 293 294 294 294 293 293 292 292 292 292 292 292 292 292 292 292 292 291 291 291 291 291 291 291 291 291 291 290
304 306 307 307 309 309 306 304 304 305 304 300 295 291 289 290 290 289 287 286 285 284 285 286 287 288 289 289 289 289 288 288 289 289 289 290 290 290 290 290 290 289 289 290 290 290 291 291 291 291 291 291 291 291 291 291 291 292 292 292 293 293 292 291 291 291 291 291 291 291 292 291 291 291 291 290 290 290 290 290 290 289 290 290 290 290
306 307 307 307 308 307 305 304 303 305 304 297 289 285 285 287 287 286 283 282 282 281 282 283 285 285 285 285 285 285 284 284 285 286 286 287 287 287 287 287 287 287 287 288 288 289 289 289 289 289 289 289 289 289 289 290 290 290 291 291 292 291 291 290 289 289 289 289 290 290 291 291 290 290 290 289 289 289 289 289 288 289 289 289 289 289
Wind_Speed
4 4 3 5 7 7 7 7 6 5 6 7 6 5 4 4 2 5 3 4 1 3 5 7 7 9 10 12 12 11 7 5 9 10 10 11 10 10 9 10 10 11 12 13 16 19 21 26 29 30 31 30 29 30 31 32 34 35 35 36 37 37 36 36 37 38 38 37 36 36 36 37 37 37 36 36 37 37 37 36 34 35 35 37 39 41
5 5 6 8 9 8 7 7 7 6 5 5 6 5 2 3 2 3 2 4 2 2 5 3 4 11 10 11 12 10 9 10 11 11 13 14 12 9 9 11 11 10 9 9 11 15 20 23 25 27 28 28 29 30 32 33 34 35 35 36 37 37 37 37 38 39 39 39 38 36 37 37 36 36 37 37 38 36 35 35 36 36 36 36 39 42
4 3 9 8 7 5 5 6 8 6 5 5 4 5 2 3 2 3 3 4 3 1 4 5 6 11 10 10 13 11 12 12 10 10 13 13 11 9 10 11 10 9 9 8 8 12 17 22 23 24 26 29 30 30 32 33 33 34 35 36 36 37 37 38 38 38 39 39 37 34 33 33 34 34 36 36 36 35 34 35 36 37 37 38 39 41
2 5 8 5 6 6 6 4 7 6 4 4 4 4 2 3 1 2 4 4 3 1 2 4 6 10 8 7 11 11 10 10 8 9 12 10 10 12 10 8 9 10 11 9 8 9 13 16 19 22 26 28 28 28 30 32 33 35 36 37 37 37 37 37 37 37 37 37 35 33 30 29 30 31 33 33 33 34 34 35 37 37 38 40 41 42
5 6 3 6 6 6 6 4 7 6 1 0 3 5 3 3 3 3 3 3 3 4 3 4 5 8 5 5 8 7 5 7 6 6 10 10 10 11 8 7 9 10 10 9 9 8 9 13 18 22 24 25 26 28 31 33 35 36 37 37 37 37 37 37 37 36 36 35 34 32 28 25 25 26 27 30 32 34 35 37 38 38 38 39 40 41
6 5 3 7 4 5 7 4 6 8 3 3 3 6 7 6 6 2 2 4 4 5 3 4 3 6 5 5 8 7 6 8 6 6 10 9 7 7 7 9 10 10 9 8 8 8 8 12 15 17 20 23 26 30 32 33 34 35 35 35 35 35 36 36 36 36 36 35 34 33 30 27 26 26 27 32 34 34 36 37 37 37 36 36 38 40
3 1 4 7 5 6 6 3 4 6 6 1 4 5 7 7 7 5 3 3 1 3 3 4 3 5 7 6 9 8 8 11 11 11 13 12 7 6 7 8 8 8 8 7 7 7 7 10 11 14 20 24 28 31 31 31 31 32 32 33 34 34 35 35 36 36 36 36 35 34 34 33 31 30 31 33 33 33 34 36 36 36 35 34 35 36
2 3 5 6 6 6 5 3 5 7 7 3 4 6 8 8 7 6 5 3 1 3 4 4 4 3 7 7 7 5 6 10 12 14 15 14 10 5 6 8 8 8 7 6 7 6 7 10 13 17 22 26 28 28 28 28 29 30 30 31 32 33 34 35 35 36 36 36 36 35 34 34 34 34 34 32 31 31 32 33 34 35 36 36 35 33
2 4 4 6 6 4 4 4 6 8 6 4 4 7 7 7 7 5 6 3 2 3 5 4 2 2 6 8 6 3 3 8 11 13 14 13 9 6 7 9 8 8 7 6 7 6 7 12 17 19 21 23 25 24 25 27 27 28 29 29 29 31 32 33 34 35 36 36 36 36 35 35 36 35 33 30 28 29 29 32 34 35 37 39 40 37
0 4 6 7 6 5 4 3 4 6 4 3 5 7 6 6 6 5 5 3 3 2 5 5 5 3 5 7 5 2 2 7 10 10 10 9 8 7 8 8 8 7 6 5 6 6 9 13 16 17 17 18 21 22 22 24 25 26 27 27 28 30 31 32 33 34 35 36 36 36 36 36 35 33 31 28 27 28 29 31 33 35 38 40 42 43
2 1 2 3 4 6 4 2 1 3 5 6 6 7 7 6 5 4 3 4 2 3 7 7 7 4 4 6 5 4 4 6 6 7 8 7 7 7 6 7 7 5 3 3 3 3 6 9 11 13 14 15 17 19 20 21 23 24 25 26 27 28 29 30 32 33 34 35 35 36 36 36 35 33 31 30 30 30 31 32 33 34 35 37 39 41
5 3 1 1 1 4 6 5 4 3 4 6 5 5 4 4 4 4 4 4 1 6 6 5 2 3 4 6 5 6 8 7 5 7 8 7 7 6 6 6 5 3 3 1 1 2 2 4 7 10 12 13 14 17 19 21 22 23 24 26 26 27 28 30 31 32 33 34 35 36 35 36 35 34 34 34 35 34 34 34 34 32 32 33 35 36
2 0 2 2 1 4 6 5 4 6 5 5 5 6 4 2 3 2 3 0 3 6 4 3 1 2 6 7 7 9 10 8 7 8 7 7 6 5 5 5 4 3 2 0 1 2 3 4 7 10 12 14 15 18 20 21 21 22 23 24 26 27 28 29 30 31 32 34 35 35 35 36 35 35 36 36 36 36 35 35 33 32 32 32 34 36
1 5 3 1 2 2 6 6 3 0 1 4 5 6 5 3 1 3 3 1 4 5 3 2 1 3 5 4 9 11 8 6 6 7 8 7 6 4 4 4 4 4 3 1 2 3 4 6 8 11 14 15 17 18 19 20 21 22 23 24 26 27 28 29 30 31 32 34 34 35 35 35 36 36 36 36 36 36 35 35 33 33 32 33 34 36
4 4 4 5 2 3 6 5 7 6 4 4 4 6 6 5 5 4 4 3 4 3 3 3 1 4 3 2 7 9 7 6 6 6 6 6 6 5 6 5 4 5 4 3 4 5 6 8 10 12 13 15 17 17 18 19 20 22 23 24 26 27 28 29 30 31 32 34 34 34 35 35 36 36 36 37 36 35 35 34 34 33 33 33 34 34
4 5 6 2 1 7 8 4 5 7 2 2 2 4 4 6 5 2 3 6 3 2 3 2 3 5 4 5 8 6 8 8 6 7 6 6 6 4 6 6 5 5 5 4 5 7 8 10 12 13 14 16 16 16 18 20 21 22 23 24 26 27 28 28 30 31 32 33 34 35 36 36 36 36 36 36 36 35 34 34 33 33 33 33 33 33
2 4 5 2 2 3 6 4 4 4 3 2 2 3 5 4 7 4 2 0 3 2 4 2 5 6 3 7 9 5 8 8 7 8 7 7 7 5 7 7 5 5 6 6 7 7 8 10 13 15 17 17 17 18 19 21 22 22 23 24 25 26 27 28 29 30 31 32 34 35 36 36 36 36 37 37 36 35 34 34 33 33 33 33 33 32
5 2 5 1 2 3 1 4 2 2 4 5 4 6 2 2 3 4 2 2 3 3 5 1 6 6 2 5 6 2 6 9 8 8 8 9 8 7 9 7 4 6 6 6 7 8 7 9 13 17 18 19 20 20 20 20 21 21 22 23 24 25 26 28 28 29 31 32 34 35 36 36 36 36 37 37 36 35 34 34 33 33 32 33 33 31
5 3 5 1 3 4 3 3 0 4 3 5 4 4 4 2 1 2 2 2 1 3 5 3 5 5 5 6 3 1 6 8 9 10 8 10 9 8 10 7 4 5 6 6 7 7 7 10 14 17 19 20 20 20 20 19 20 21 22 23 24 25 25 25 27 29 30 32 34 35 36 36 36 36 36 36 36 35 35 35 34 33 33 33 33 31
4 4 4 2 1 2 3 2 6 2 2 3 1 2 3 3 4 3 3 3 4 4 3 3 3 4 6 7 6 8 9 8 9 9 9 11 11 9 7 6 4 5 6 6 6 7 7 10 14 16 18 18 17 18 19 19 21 22 22 23 25 26 26 25 26 29 31 32 33 34 35 35 36 36 36 36 36 36 36 35 34 34 34 33 34 34
3 4 4 2 2 1 2 4 7 8 5 3 3 4 3 1 2 2 1 2 4 4 3 3 5 6 5 4 9 11 10 10 11 11 10 11 11 9 7 6 6 5 6 5 6 7 6 9 12 13 15 15 16 17 19 20 22 22 22 24 24 26 27 26 25 27 31 32 33 34 35 36 35 35 35 35 36 37 37 36 35 34 34 34 36 36
3 4 4 2 1 4 5 5 5 10 9 8 7 8 8 5 4 3 4 2 2 3 5 4 6 9 5 4 7 8 9 10 10 10 10 9 9 8 7 6 6 6 6 5 5 5 4 6 8 8 9 12 15 18 19 20 22 22 23 24 24 26 28 27 24 25 29 31 33 34 35 35 35 35 35 35 36 37 37 36 35 34 34 35 37 36
3 4 4 3 4 6 7 5 3 6 5 3 4 6 7 7 6 6 6 4 1 2 3 3 4 8 4 5 7 6 7 8 8 8 8 8 8 7 6 5 4 4 5 5 5 4 4 5 5 4 6 10 15 18 19 20 21 22 22 22 23 26 28 27 25 25 27 29 32 34 34 35 36 35 35 36 37 38 38 37 36 34 34 36 37 37
3 4 4 1 3 4 5 5 3 1 1 3 4 3 4 4 4 5 5 4 3 4 3 2 5 8 4 2 4 4 5 6 4 6 7 5 5 3 2 3 3 3 5 6 6 5 5 5 4 5 8 12 16 19 20 21 21 22 21 22 24 25 25 26 25 24 26 28 31 33 34 35 36 36 36 37 38 38 38 37 36 36 36 36 38 39
4 3 4 3 1 3 4 3 3 2 2 3 3 3 4 4 5 4 1 2 2 6 7 5 8 9 4 3 2 3 4 3 2 4 4 1 3 3 4 5 4 4 5 5 5 5 5 5 5 7 11 14 17 20 21 21 22 23 23 23 24 25 24 25 26 24 25 27 30 31 34 36 36 36 37 38 39 39 38 37 37 36 36 37 38 39
6 5 5 6 7 7 6 6 5 4 3 1 3 7 8 8 9 5 3 3 5 8 8 7 9 9 3 4 4 3 4 3 2 3 1 4 4 3 3 3 3 4 5 5 5 5 5 5 6 9 14 16 18 21 22 22 23 23 24 24 25 26 26 26 26 24 24 26 29 31 34 36 37 38 39 40 39 39 38 37 37 37 37 37 38 39
3 4 7 10 12 11 11 9 6 9 7 7 10 12 12 11 12 10 5 6 10 9 7 9 12 12 8 4 5 5 3 2 4 5 2 1 0 3 3 3 4 5 5 5 5 6 7 7 7 10 15 19 20 21 21 22 23 23 23 24 24 25 26 27 26 24 25 27 29 31 34 36 38 39 40 40 39 39 38 37 37 38 38 38 38 39
4 4 9 12 14 14 12 9 9 13 13 15 16 14 13 13 13 12 11 13 13 8 9 14 12 13 16 10 7 8 7 4 6 7 5 3 2 4 5 4 5 6 6 6 7 7 8 8 8 9 14 18 19 20 21 21 22 22 22 23 23 24 26 26 25 25 26 27 29 32 35 37 38 39 39 39 38 38 38 38 38 38 38 38 39 40
4 5 7 10 13 15 11 6 10 13 13 14 17 16 16 15 15 16 18 20 16 10 12 17 13 13 19 13 10 12 9 7 8 7 4 3 3 4 5 6 8 9 9 9 8 8 7 8 9 10 14 17 18 21 22 21 20 19 20 22 23 24 25 24 23 24 26 27 30 33 36 36 37 37 37 37 37 38 38 38 38 38 38 39 40 41
4 5 6 8 10 14 13 8 10 12 10 10 14 15 15 17 19 21 22 23 20 15 15 19 16 16 17 11 10 12 10 9 8 2 1 4 5 5 6 7 8 9 8 9 9 8 8 8 9 10 14 17 19 21 21 20 20 20 21 22 23 23 23 21 22 24 25 28 31 33 35 35 36 36 35 35 37 38 38 38 38 38 39 40 40 40
2 4 3 5 5 12 13 8 8 10 10 10 11 12 13 15 18 20 19 18 16 15 17 19 17 17 12 6 9 9 5 5 5 3 4 7 5 5 7 8 9 8 8 10 10 9 9 9 9 9 12 15 17 17 17 18 19 20 20 21 22 23 21 20 21 23 25 28 31 32 33 34 35 34 34 35 36 37 37 38 38 38 39 40 40 40
1 2 1 3 5 11 10 7 8 6 6 7 10 13 15 14 14 14 14 14 14 15 17 16 15 15 7 6 8 6 6 7 8 7 7 6 5 7 9 10 9 7 9 11 10 10 10 9 8 8 11 15 16 16 16 16 17 17 18 20 21 22 22 20 21 22 24 27 29 30 32 33 33 32 33 34 35 36 36 36 37 38 39 40 40 40
1 3 2 3 7 10 6 7 8 6 4 7 13 17 18 14 11 10 12 15 16 14 13 12 14 14 5 6 7 6 7 8 9 7 7 7 7 8 10 10 9 9 11 11 9 9 9 8 9 11 14 16 16 15 15 14 14 15 17 18 20 21 22 22 22 22 25 27 28 30 31 30 30 31 33 35 35 36 35 35 37 39 40 41 40 39
1 2 2 3 5 8 4 7 7 5 7 11 10 10 15 15 13 14 15 17 16 12 10 9 11 11 4 7 10 10 7 7 8 8 7 6 6 8 9 10 9 8 9 8 7 7 7 8 11 12 13 13 14 15 16 15 15 15 17 18 20 21 22 22 23 24 27 29 29 29 29 28 29 31 33 34 34 34 34 35 38 40 40 40 38 38
2 2 2 1 2 3 4 6 5 7 10 9 4 2 10 13 15 17 16 14 13 13 12 12 14 15 12 9 9 9 8 9 10 8 4 6 8 8 8 8 6 5 6 6 6 7 6 6 8 10 12 13 14 16 17 17 17 18 18 19 20 20 21 22 23 25 27 29 29 29 29 28 29 31 32 33 32 32 34 36 38 39 38 38 38 39
4 3 2 2 2 2 3 6 7 4 3 6 6 2 5 6 9 11 11 12 13 13 13 15 18 19 17 12 9 8 9 9 7 3 3 7 7 3 3 4 2 3 5 5 6 6 5 5 6 9 11 13 15 16 16 16 17 18 18 18 18 18 18 19 22 25 26 28 29 30 29 28 29 30 31 31 31 32 34 36 37 38 37 37 38 38
8 4 2 2 3 3 3 5 3 4 6 9 8 4 4 5 8 8 8 13 13 12 13 14 17 18 16 12 10 9 5 3 6 3 1 0 2 3 3 3 1 2 4 4 4 4 5 6 8 9 11 14 16 16 16 17 17 18 19 19 18 18 18 18 21 23 25 26 28 29 29 28 28 30 31 31 31 33 35 36 37 37 36 36 37 37
9 7 5 4 4 2 3 5 3 2 7 10 7 4 5 8 10 9 8 11 8 9 13 15 17 18 14 11 10 6 2 1 5 3 1 3 3 3 2 1 3 5 5 5 6 8 10 12 13 14 14 15 17 17 18 19 19 19 20 21 20 19 19 21 22 23 24 26 28 28 28 28 28 30 31 31 32 35 36 36 37 37 36 37 38 38
11 9 6 5 4 3 4 6 5 5 8 8 6 5 6 8 9 8 6 8 4 3 7 11 15 14 11 10 8 2 4 4 6 4 2 4 4 5 4 4 6 9 10 9 8 10 12 14 15 16 17 18 19 20 21 22 22 21 22 23 21 21 23 25 25 25 26 28 29 30 29 29 29 30 31 33 35 36 37 36 37 36 36 36 37 37
10 7 6 7 7 7 7 6 5 5 6 6 6 6 6 7 10 7 6 7 3 3 4 3 7 7 6 5 3 4 5 6 4 4 3 4 4 5 4 4 7 10 11 12 10 11 13 14 15 17 18 20 21 22 23 23 23 23 24 24 23 23 25 27 26 26 28 30 30 31 31 31 31 31 33 34 36 37 36 36 36 35 34 35 35 36
7 5 6 8 9 9 11 9 5 4 5 7 7 5 5 7 8 7 8 4 2 2 4 3 4 1 1 3 3 3 3 1 3 2 3 3 4 5 5 5 7 9 10 12 12 13 13 14 15 17 19 21 23 23 23 23 22 23 24 23 23 25 26 27 28 28 29 30 31 31 32 32 32 32 33 34 35 36 36 36 34 34 33 34 34 34
6 4 5 8 9 8 8 8 7 5 4 5 4 3 5 6 4 5 3 1 2 2 2 5 5 3 4 5 5 2 2 3 2 0 2 3 4 6 6 7 8 9 12 14 15 16 15 15 16 18 20 22 22 23 24 22 21 22 22 21 23 26 27 27 28 30 30 31 32 32 32 33 32 32 33 33 33 34 35 35 33 32 32 32 32 32
6 5 4 6 7 5 5 7 7 5 2 2 3 2 3 4 3 3 3 2 1 2 4 4 4 3 3 3 2 1 2 2 1 2 4 5 3 4 6 8 9 10 14 16 18 19 19 18 18 19 22 24 23 23 22 19 20 21 20 22 26 27 28 29 30 30 31 32 33 33 32 32 31 31 31 32 31 32 34 33 31 30 31 31 30 30
5 5 5 5 5 5 6 6 3 2 4 3 2 3 3 2 2 3 3 3 2 2 2 3 4 4 2 3 4 3 3 3 3 2 1 1 2 3 5 8 10 12 15 17 19 21 20 19 19 21 24 26 25 25 23 19 19 20 21 25 28 29 29 32 31 31 32 32 32 32 31 30 29 29 29 30 29 30 31 31 29 28 28 29 29 28
3 2 3 3 3 3 3 2 1 1 4 4 3 5 4 4 4 4 5 4 3 2 2 3 4 6 5 5 5 5 6 7 8 7 7 6 6 5 6 7 9 12 14 16 18 21 21 20 21 23 25 27 27 27 26 23 20 22 26 29 31 30 32 34 32 31 32 33 32 31 30 29 28 28 28 28 27 28 29 29 27 26 27 27 27 26
1 1 2 1 1 1 1 2 2 1 3 4 5 4 4 4 4 4 6 6 5 4 4 4 4 6 6 5 5 5 6 7 8 8 9 8 7 7 7 8 10 12 14 15 17 19 20 20 21 22 25 28 28 28 29 27 23 24 30 34 33 33 33 33 32 31 32 32 31 30 28 28 29 28 27 26 26 26 28 27 26 26 26 25 25 24
2 2 2 1 2 2 0 3 4 4 3 4 4 3 5 6 5 5 6 5 5 4 4 4 4 5 6 6 6 6 6 7 7 8 9 9 9 9 8 8 11 13 15 16 18 20 19 18 18 19 21 26 28 28 29 30 28 28 31 34 34 34 33 32 31 31 32 31 30 28 27 26 27 27 26 25 24 24 25 25 25 25 25 24 23 22
2 2 3 3 3 2 1 2 4 4 3 4 4 3 4 6 6 6 6 5 5 5 5 5 5 5 5 5 5 5 5 6 7 7 8 8 9 9 8 9 13 15 17 19 21 22 21 19 19 19 20 23 25 26 27 29 31 31 31 33 34 33 32 32 31 31 32 32 30 28 27 25 25 25 24 23 23 23 24 24 24 25 26 26 26 25
0 2 3 2 2 1 1 1 5 6 3 4 4 4 4 4 5 6 6 6 7 7 6 5 5 5 5 5 5 4 5 6 6 7 8 8 8 9 11 14 17 18 19 20 21 21 21 22 22 23 23 24 24 24 25 28 30 31 31 32 33 32 30 31 31 31 32 32 30 28 27 24 23 22 22 22 22 21 22 23 23 25 26 26 26 26
2 1 1 2 2 2 2 3 5 5 2 1 1 2 4 4 4 6 6 7 8 7 6 6 5 5 6 7 7 6 5 6 7 7 7 6 7 10 14 18 20 21 21 22 22 21 20 21 22 24 26 27 26 24 25 28 31 31 30 30 31 30 28 30 30 30 31 31 29 28 26 24 22 21 20 20 20 20 19 19 19 21 23 23 23 24
3 4 3 4 3 3 2 3 3 3 2 2 3 2 2 3 4 6 6 6 6 6 6 6 5 4 5 6 8 7 6 7 9 10 8 7 9 13 16 17 18 20 23 24 23 23 23 24 24 25 28 31 31 30 30 31 32 31 30 30 30 28 27 27 27 29 30 28 26 26 24 23 22 21 19 19 19 18 18 16 15 16 19 20 21 21
Wind_Direction
85 107 166 183 195 194 189 178 155 156 141 133 127 112 154 171 234 258 269 305 120 140 250 239 245 259 259 267 268 273 283 253 253 259 256 254 248 244 243 244 245 243 251 256 253 250 244 236 231 228 226 224 222 221 219 217 216 216 215 213 212 213 213 210 209 207 207 207 208 211 213 213 214 215 216 218 219 219 222 222 220 218 216 216 214 213
69 130 210 215 204 190 180 169 128 109 90 95 125 119 151 185 220 251 237 306 4 139 267 311 294 268 258 265 267 268 275 262 244 243 250 249 245 244 244 246 246 250 261 267 257 246 241 237 231 226 223 219 217 217 216 217 217 216 215 215 215 214 213 213 213 210 208 208 207 209 211 213 213 214 215 216 218 219 221 223 223 223 222 222 219 214
54 198 232 226 197 145 117 141 122 108 93 82 116 127 172 229 260 294 296 312 8 123 272 351 330 277 263 257 262 258 252 254 243 233 245 251 250 245 238 241 247 257 264 260 256 246 237 233 228 222 219 218 218 217 215 216 217 215 215 216 216 216 216 216 215 214 213 212 211 212 214 215 215 215 215 217 220 220 221 223 224 225 224 223 223 220
122 246 239 201 158 117 88 129 123 100 87 91 114 132 208 259 244 269 292 312 358 40 275 355 322 283 284 275 267 261 253 264 261 243 246 245 244 245 243 242 240 247 255 253 250 247 240 232 223 218 216 216 215 214 214 214 214 215 216 217 216 217 218 217 216 215 215 213 212 214 217 219 219 220 220 220 222 222 223 224 223 225 225 223 223 223
203 252 208 122 132 127 106 129 141 136 138 18 138 143 185 223 171 200 274 313 355 0 15 30 332 290 311 326 288 285 294 285 278 274 265 246 237 250 263 258 243 242 248 250 248 244 236 226 219 215 214 212 210 211 214 215 215 216 217 218 218 218 218 217 216 215 214 212 211 212 215 219 221 223 221 219 221 220 220 222 222 222 223 222 222 221
237 257 138 113 111 114 117 145 171 163 166 301 231 177 174 169 156 163 357 31 28 345 334 38 356 290 313 319 281 293 320 299 304 315 284 266 244 241 254 254 248 252 250 246 249 242 230 224 218 213 211 208 209 213 218 218 218 218 218 218 218 218 218 218 217 215 214 213 213 212 212 214 216 219 220 219 220 219 218 219 219 219 218 220 221 219
242 315 92 121 130 115 119 159 199 153 124 253 241 179 148 126 122 126 86 61 68 262 292 52 103 267 303 290 261 276 296 289 291 294 284 277 258 217 234 250 247 255 253 248 251 241 229 219 205 205 208 208 212 216 218 218 217 218 219 219 218 219 219 218 217 216 215 215 215 216 216 217 217 220 224 225 225 223 222 221 220 218 216 216 217 217
178 75 65 94 101 107 127 180 206 141 118 229 232 138 128 120 127 133 111 104 228 255 317 16 123 231 291 270 258 274 281 280 281 279 275 273 271 239 239 251 247 249 246 239 240 230 222 211 201 205 210 211 215 217 215 215 217 217 219 220 219 220 220 219 219 218 217 217 218 219 221 223 224 227 230 231 230 229 227 225 223 222 221 219 218 217
171 149 162 132 101 128 178 218 204 132 108 239 201 128 130 129 130 120 101 98 6 2 313 309 134 201 269 272 296 338 287 277 268 262 262 271 287 280 257 259 260 256 244 228 227 219 211 209 209 212 214 215 216 216 215 216 218 218 219 221 220 221 221 221 221 221 221 222 223 224 224 226 229 231 233 234 234 233 232 231 229 228 226 225 225 224
128 183 191 140 129 189 203 251 206 134 111 192 138 97 77 78 84 78 94 109 43 1 255 227 175 209 267 280 300 345 293 264 260 263 264 272 285 271 260 267 270 272 258 231 222 218 215 213 214 216 218 219 216 215 218 218 219 219 219 220 220 222 223 223 223 224 225 225 225 226 226 227 229 230 231 233 235 235 235 235 234 232 230 228 229 230
322 255 202 117 152 189 156 89 112 137 135 131 95 65 48 33 41 47 59 87 68 285 255 222 188 198 276 277 253 229 224 228 255 288 285 285 292 276 266 265 267 293 300 237 205 211 225 221 220 219 219 220 217 216 218 218 220 220 220 221 222 224 224 225 226 226 227 227 227 227 227 228 229 229 229 230 232 233 233 234 234 234 233 232 231 232
352 33 297 291 160 134 100 67 29 19 84 99 80 78 68 352 10 19 0 48 140 253 265 267 215 165 240 256 252 251 251 238 238 265 276 292 301 287 278 270 270 316 343 302 131 115 191 208 212 213 216 218 216 215 217 218 220 220 221 221 222 224 225 226 227 227 228 228 228 229 229 230 231 230 229 229 231 231 231 232 234 234 236 235 234 232
353 7 284 315 225 138 106 75 29 5 28 74 93 99 96 336 5 342 301 201 227 246 264 297 286 211 236 242 252 262 262 252 227 223 246 264 264 256 257 263 273 291 304 273 126 141 191 205 208 207 210 212 213 215 216 217 219 220 221 222 223 225 227 227 227 228 228 229 230 230 230 232 232 232 232 232 232 232 232 233 233 233 235 234 233 230
282 307 308 69 285 198 136 130 137 230 93 125 137 133 137 138 136 248 264 267 260 264 282 302 244 252 275 260 241 244 249 249 235 228 234 240 239 243 260 272 274 268 264 262 249 234 225 222 218 212 211 213 214 216 216 216 218 220 221 223 225 228 229 229 229 229 230 230 232 232 233 234 234 233 234 234 234 234 234 234 234 235 236 235 234 232
185 278 228 175 214 194 171 174 157 148 158 178 156 136 154 162 163 205 214 212 249 281 298 299 235 205 227 271 246 245 266 276 258 255 258 257 255 267 290 292 258 250 258 263 253 245 239 231 226 222 219 218 219 218 217 217 218 220 223 225 227 229 230 230 230 230 231 232 233 234 235 235 235 236 237 237 237 236 236 236 236 237 237 238 238 236
163 253 247 217 152 164 175 201 138 117 118 232 123 107 186 191 148 137 192 180 183 313 297 255 234 215 209 272 271 261 282 290 282 293 311 292 274 294 299 273 233 233 240 237 241 246 248 239 232 232 229 226 225 223 221 220 220 221 225 227 230 232 233 233 232 232 233 234 235 236 236 237 237 237 238 238 238 238 238 239 239 239 239 240 240 240
144 271 276 5 16 170 167 171 141 134 169 174 147 182 216 179 122 110 249 138 81 266 270 208 248 282 327 287 281 273 279 294 305 307 310 296 300 323 292 259 224 225 226 219 226 234 240 238 234 234 234 232 229 227 227 227 226 227 228 229 232 234 234 235 235 235 236 236 237 238 237 238 238 238 239 239 239 239 240 241 242 242 242 241 241 243
155 245 290 128 186 269 166 131 56 21 132 134 187 208 179 86 91 109 211 341 41 248 271 244 242 274 312 271 302 332 264 277 289 286 285 288 292 284 268 254 208 219 232 230 237 244 247 241 236 235 235 236 236 235 236 235 234 233 234 235 235 236 236 237 239 239 240 239 239 240 239 239 239 240 241 242 242 242 242 242 242 241 241 240 239 243
151 185 300 28 178 285 8 112 274 343 90 135 189 185 112 126 208 105 162 204 164 232 272 285 260 255 215 225 285 271 224 240 263 270 273 274 265 249 258 264 219 224 246 242 237 245 247 238 235 233 234 237 239 241 243 242 240 237 237 238 239 241 241 242 243 244 243 242 242 243 243 242 242 242 243 244 244 244 243 242 242 240 239 239 237 238
141 177 264 321 226 304 34 144 200 210 54 63 101 110 97 148 174 167 166 169 172 200 248 299 301 260 227 205 191 210 218 214 233 252 255 254 251 245 258 271 247 229 241 241 236 242 244 240 238 235 236 241 243 246 247 245 243 242 241 241 241 243 243 242 244 245 245 245 245 245 245 245 244 243 244 245 245 244 244 243 242 241 239 237 236 235
130 186 226 304 336 177 175 210 191 170 158 146 157 175 190 123 110 168 194 130 144 170 195 264 278 262 251 193 178 199 216 214 219 231 236 242 250 252 250 255 257 249 249 248 244 243 242 247 249 243 243 247 248 250 249 246 245 245 244 244 243 244 243 244 246 246 247 247 246 246 247 246 246 245 245 245 245 244 244 244 242 242 240 238 236 234
169 182 171 146 213 203 224 248 191 179 184 174 180 193 191 172 136 169 237 221 128 167 179 199 266 266 245 192 187 196 212 223 223 224 236 250 256 254 247 241 242 246 255 259 257 255 254 261 264 256 249 250 251 251 249 247 246 245 246 247 247 247 247 248 252 252 251 249 247 248 248 248 248 247 246 245 245 244 244 243 243 242 240 238 236 235
127 115 134 169 215 216 242 266 216 204 212 188 203 200 186 186 166 170 215 220 152 214 177 136 266 270 237 190 205 213 223 240 237 218 230 256 252 242 256 265 247 247 272 293 299 296 300 299 297 286 264 256 253 253 251 249 247 246 248 250 250 250 252 254 257 258 254 250 249 250 249 250 249 247 246 245 245 245 244 243 243 242 241 238 236 237
105 109 141 215 311 313 306 320 358 73 187 230 241 186 158 195 174 156 189 180 167 210 190 146 249 264 272 216 222 245 253 262 260 217 215 253 268 247 308 343 6 345 324 322 315 314 325 323 308 277 265 258 255 256 254 252 250 249 250 252 252 254 258 261 262 261 256 252 252 251 249 250 249 246 245 245 245 245 244 244 243 243 241 239 237 238
190 174 144 132 326 323 325 320 309 263 200 218 239 193 174 161 111 89 123 131 201 223 191 184 239 254 288 317 283 302 319 326 298 210 193 318 351 24 41 26 17 355 328 310 297 295 299 295 283 270 266 261 260 261 259 257 255 253 253 254 255 259 264 266 264 263 259 255 253 252 250 250 249 247 245 245 245 245 244 244 243 243 242 239 237 237
182 185 162 166 198 216 216 220 217 195 180 213 221 206 196 169 152 169 197 168 225 230 191 193 239 248 301 336 298 315 10 14 306 270 349 40 17 6 23 359 323 308 296 287 277 273 282 289 288 282 277 273 270 268 266 265 262 259 258 258 259 264 268 268 267 265 262 258 254 253 253 252 250 249 248 247 246 245 244 243 243 242 241 240 238 237
141 196 194 193 206 211 213 217 177 143 155 206 217 206 199 193 186 190 195 199 219 229 219 224 239 246 253 255 259 279 316 304 274 284 311 70 199 272 258 247 261 265 272 287 299 309 315 310 292 278 277 279 279 276 273 271 270 267 264 265 269 271 272 272 270 267 264 259 256 255 256 256 254 253 252 249 247 246 245 244 243 242 241 240 239 237
111 213 212 207 218 223 220 210 168 158 176 202 212 207 201 201 193 192 209 219 218 221 239 237 227 239 249 235 221 251 260 256 259 260 257 235 220 245 251 267 292 301 312 322 319 316 309 300 293 280 277 282 285 287 285 280 277 273 270 276 283 282 280 278 272 268 266 260 256 257 260 261 259 257 255 252 250 248 246 244 243 242 241 240 239 238
144 217 215 205 225 237 232 197 170 182 192 200 208 207 201 198 193 198 215 224 218 208 237 242 218 221 245 238 215 231 233 230 243 237 230 260 277 283 298 317 319 317 323 321 308 297 284 280 284 282 284 289 290 292 293 289 287 286 285 290 295 292 289 284 275 270 267 260 257 261 264 264 261 259 256 253 251 248 247 245 243 242 241 240 239 238
169 220 215 195 220 242 237 203 180 193 199 205 214 211 203 199 198 204 215 223 223 218 233 246 238 234 244 234 214 228 226 227 247 250 190 253 275 298 309 310 301 299 301 294 286 282 274 267 269 275 283 287 288 291 295 298 301 303 302 301 301 299 296 288 279 273 266 261 263 267 267 264 262 259 256 254 252 249 247 245 243 242 241 241 240 239
204 220 212 170 204 245 240 207 182 193 199 210 223 223 215 209 208 213 218 222 226 228 235 245 252 253 249 203 210 231 210 205 237 242 234 245 258 280 288 282 278 283 283 279 277 275 271 268 269 274 280 285 292 299 301 305 309 309 307 307 306 307 303 292 281 274 267 266 269 270 268 265 262 259 257 255 253 250 248 246 243 242 241 241 240 238
205 204 78 120 202 242 236 185 170 179 187 216 233 228 218 213 212 216 218 219 217 220 230 238 248 254 237 168 209 220 148 180 220 223 235 246 232 237 254 258 256 256 260 264 267 266 267 272 279 290 295 296 302 307 306 307 309 307 307 311 311 311 307 297 287 279 273 274 274 272 269 266 262 259 257 256 254 251 249 246 243 242 241 240 239 238
147 156 145 158 209 242 232 152 148 137 146 232 237 224 214 212 211 211 220 227 220 213 219 223 233 245 219 159 217 219 168 197 228 223 233 253 244 234 242 246 240 234 241 249 257 267 276 287 293 294 296 300 306 312 316 317 314 310 312 314 314 312 307 300 294 287 283 283 280 277 274 269 264 261 259 258 256 253 249 245 243 242 241 240 239 237
100 122 164 177 210 234 198 128 128 153 206 234 235 208 204 205 203 208 221 226 221 216 223 234 249 257 216 170 214 226 200 207 230 230 224 229 237 238 239 244 242 238 248 262 274 281 281 282 289 294 299 310 320 325 328 331 327 324 323 320 317 314 310 306 299 293 289 287 285 282 279 274 267 264 263 261 258 253 248 245 244 244 242 241 239 236
134 126 186 190 199 216 150 126 165 208 218 243 291 179 197 200 199 210 226 229 219 216 227 243 256 256 240 216 216 225 225 229 242 250 207 183 209 231 243 256 264 252 257 269 264 262 266 272 293 312 321 328 333 333 335 337 335 332 328 323 319 314 312 308 301 295 292 290 289 287 283 278 272 269 267 263 258 254 250 247 246 244 243 241 238 237
180 166 191 196 177 183 156 175 208 239 270 288 300 262 192 185 187 207 235 242 224 209 215 231 241 246 248 244 235 231 234 244 263 283 156 185 212 222 223 244 255 229 240 246 242 254 284 309 320 328 332 338 342 341 343 341 336 331 328 325 322 316 313 307 299 297 296 294 293 292 287 282 276 272 270 265 259 254 251 249 247 245 243 241 240 239
186 170 172 213 201 193 212 214 231 325 308 274 260 223 177 172 176 187 229 245 229 204 205 223 236 243 246 244 242 238 231 276 306 324 55 308 346 66 123 187 236 278 272 281 284 294 327 343 343 342 339 340 341 341 341 338 333 329 325 324 324 321 317 308 300 300 300 298 297 296 292 287 281 276 272 266 259 255 254 251 249 247 244 241 240 238
189 187 183 203 207 188 226 249 253 261 256 249 235 191 180 185 177 175 214 247 239 202 205 218 231 240 243 246 250 237 149 278 279 261 287 339 343 13 28 304 318 335 339 336 335 344 354 355 351 346 340 334 335 339 337 333 330 326 321 320 322 322 316 307 304 307 307 304 303 301 297 291 284 278 274 267 262 259 257 254 251 249 245 241 240 239
196 199 188 196 218 205 210 236 235 226 246 248 222 198 204 188 156 147 202 242 252 234 227 225 232 242 244 248 251 162 126 243 249 219 244 300 317 329 337 338 340 349 353 350 343 340 346 349 345 342 339 334 333 336 333 328 327 323 318 318 320 319 313 308 310 314 313 310 308 305 300 293 286 280 274 269 266 263 260 257 255 252 247 243 241 241
196 199 194 201 217 218 218 235 240 232 252 248 220 216 210 160 129 137 210 231 235 313 308 225 217 237 232 223 208 143 173 226 211 185 239 288 320 313 306 320 334 337 336 336 335 329 332 338 337 334 333 330 329 332 330 327 326 321 318 319 318 314 312 312 315 316 312 309 308 305 301 296 289 282 276 272 270 267 263 260 257 252 248 244 242 241
195 194 200 205 214 218 220 233 247 246 244 230 215 205 167 134 135 184 218 211 163 280 328 75 113 96 91 108 106 148 201 209 114 157 249 308 333 310 298 308 317 319 320 323 328 328 328 332 333 330 328 328 329 329 327 326 323 319 318 317 312 310 314 316 316 314 310 309 307 303 300 297 291 285 281 276 273 270 266 262 257 252 248 245 242 240
192 192 200 205 216 221 221 232 245 253 242 206 183 157 149 154 187 205 195 105 127 153 49 69 78 45 40 59 63 59 331 354 50 177 263 281 292 293 302 317 323 328 331 332 335 337 333 331 331 328 326 330 331 327 324 323 318 315 315 309 305 309 315 315 313 312 310 308 305 303 300 298 293 289 284 280 275 270 266 263 258 253 249 245 242 239
180 186 201 199 203 211 219 229 233 250 278 150 129 128 170 187 198 155 114 67 96 97 64 66 67 50 56 55 34 343 294 291 203 179 199 213 243 288 313 329 333 331 334 335 336 338 334 329 326 323 322 325 326 323 321 317 311 311 307 302 306 313 315 311 311 311 308 305 304 303 301 299 295 291 286 282 276 270 266 263 258 253 248 243 239 238
188 192 206 201 197 203 215 225 223 278 311 309 134 137 143 120 114 133 118 87 79 54 40 51 33 7 13 21 356 341 348 347 342 342 269 269 355 346 333 339 338 332 333 333 332 333 333 326 320 318 318 320 323 323 321 315 310 307 300 301 310 315 312 310 310 308 305 303 302 301 301 299 296 291 287 283 277 270 265 262 257 252 246 240 236 235
204 177 183 192 201 197 189 199 236 304 315 337 55 99 107 85 78 104 103 84 67 27 25 50 23 353 348 355 351 356 4 354 345 347 349 349 353 350 340 338 335 331 329 329 329 331 330 323 319 316 316 318 323 324 322 319 313 305 301 306 313 313 310 310 310 306 303 302 301 300 300 298 293 289 285 281 275 267 263 259 253 248 243 238 233 232
226 118 89 92 229 238 110 118 130 81 45 51 53 65 95 88 66 79 86 78 64 44 38 49 34 12 7 6 5 8 360 349 344 344 342 340 340 343 341 335 335 335 332 328 328 329 326 322 318 315 314 317 321 323 322 319 313 304 304 310 313 312 310 309 305 301 299 298 298 299 298 295 291 288 284 279 272 265 261 256 250 245 241 235 231 231
270 171 117 115 233 250 190 144 144 131 115 100 81 63 74 71 55 61 79 83 85 75 56 50 48 37 32 29 24 9 347 344 347 340 337 338 336 334 335 333 333 334 331 328 326 326 324 320 313 311 310 311 315 320 320 317 313 308 309 312 313 312 310 306 300 297 295 295 296 296 294 289 287 286 283 277 271 264 258 253 247 243 238 232 228 228
238 172 165 198 217 200 179 166 132 115 85 64 71 73 67 62 53 51 61 73 82 78 62 50 51 51 46 39 28 8 346 342 342 335 330 329 325 324 327 327 327 329 328 328 328 326 324 319 313 310 306 304 309 314 314 312 312 312 312 313 314 312 308 302 298 295 293 294 294 292 289 285 282 281 280 275 270 263 256 251 244 240 236 233 229 227
103 145 172 176 186 203 227 138 111 101 56 18 35 35 23 42 55 48 44 46 48 49 44 36 39 50 45 27 14 8 353 337 332 330 325 320 319 321 323 324 325 326 325 325 326 324 321 316 313 311 307 305 308 310 308 307 309 311 313 315 315 312 305 299 296 294 291 291 289 286 284 282 279 277 275 272 269 262 256 252 247 243 241 239 237 234
99 164 174 105 144 215 219 166 139 127 129 316 49 20 356 13 51 52 42 36 30 24 15 11 24 50 45 24 12 9 355 335 329 324 313 309 314 315 317 322 323 322 322 324 323 321 318 315 313 311 309 309 312 312 309 307 307 309 313 315 316 312 302 295 293 289 286 284 283 282 282 280 277 273 269 265 263 258 253 250 248 246 245 243 242 240
163 186 170 134 171 217 195 173 165 130 121 138 127 101 358 1 63 72 51 33 24 14 1 356 2 22 32 24 17 11 353 334 334 330 319 314 320 318 316 319 320 319 320 323 324 323 321 319 318 317 314 314 317 316 313 310 309 310 314 316 315 310 300 291 286 282 280 280 280 280 279 277 273 269 262 257 254 249 243 239 240 243 244 242 243 243